Wind_Speed
26 28 30 31 33 34 36 38 39 41 40 41 42 43 44 44 44 44 43 42 41 41 41 40 39 38 38 38 37 37 37 36 36 35 35 35 34 34 33 33 33 32 32 33
25 27 28 29 30 32 34 36 38 39 40 41 42 42 43 43 44 43 43 43 42 41 41 40 39 39 38 38 38 37 37 36 36 35 35 35 35 34 34 34 33 33 33 33
25 25 27 28 29 30 31 34 35 37 38 40 41 42 42 42 43 43 43 42 42 42 41 40 39 39 39 38 38 37 37 36 36 35 35 35 35 35 34 34 34 34 34 34
23 25 26 27 28 28 29 31 33 34 36 38 40 41 41 41 41 41 41 41 42 42 41 40 40 39 39 39 38 37 37 37 36 36 35 35 34 34 34 34 34 34 33 33
21 24 25 26 27 27 29 29 30 31 33 36 37 39 40 39 39 39 39 39 40 41 41 41 41 41 40 39 38 38 37 37 37 36 35 35 35 34 34 33 33 33 33 33
20 22 23 24 26 27 27 28 29 30 32 34 35 36 37 38 37 37 37 37 38 40 40 41 41 41 41 40 39 39 38 37 37 36 35 35 35 34 34 34 33 32 33 33
18 20 22 24 26 26 27 27 27 29 30 32 32 33 34 35 36 36 37 37 38 38 39 40 40 40 40 40 40 39 39 38 37 36 36 35 35 34 33 33 33 32 33 33
16 18 20 22 25 25 26 27 28 29 30 30 31 32 32 33 34 35 35 36 37 37 37 38 39 40 40 40 40 39 38 38 37 37 36 36 35 34 33 33 33 32 33 33
17 17 18 20 22 24 25 25 27 27 28 29 30 30 31 31 32 34 34 35 36 36 37 37 37 38 38 38 39 39 38 38 37 37 36 36 35 35 34 34 33 33 33 33
16 16 17 18 19 22 24 24 25 26 26 27 28 28 29 29 29 30 32 34 35 35 36 37 37 37 37 37 38 38 38 37 37 37 36 36 35 35 35 34 34 33 33 33
15 16 17 19 19 20 22 24 24 24 25 26 27 27 27 27 27 28 29 31 33 34 35 36 36 37 37 37 37 38 38 37 37 37 36 36 35 35 35 34 34 33 33 32
14 16 17 18 18 20 22 23 23 24 25 25 26 27 26 26 26 26 28 29 30 32 34 35 36 36 37 37 38 38 38 38 38 37 37 36 36 35 35 35 34 34 33 32
14 15 17 19 19 20 21 23 23 25 25 25 26 27 27 27 27 26 26 28 29 30 31 33 35 36 36 37 37 38 38 38 38 37 37 37 36 36 36 36 35 34 34 33
15 15 16 18 19 19 20 21 22 24 25 24 24 25 26 27 27 27 27 27 28 29 29 31 33 34 35 36 36 37 38 38 38 37 37 37 37 36 36 36 36 35 34 34
15 15 15 17 19 20 19 20 22 23 23 24 23 24 24 26 27 27 28 28 28 29 29 30 31 32 34 35 35 36 37 37 37 37 37 37 37 36 36 36 36 35 35 34
15 14 14 15 18 19 20 21 21 22 22 22 23 23 24 25 27 27 27 27 27 28 29 30 30 30 31 33 34 35 35 36 36 37 36 36 36 36 36 35 35 35 34 34
15 16 15 15 16 18 20 21 22 22 22 22 23 23 25 26 27 27 28 27 27 28 29 29 29 30 30 31 32 33 34 35 36 36 36 36 35 36 36 35 35 34 34 34
14 16 17 17 17 18 18 20 22 23 23 24 24 24 25 26 27 27 28 28 28 28 28 29 29 30 30 30 31 32 33 34 34 34 35 35 35 35 35 35 35 35 34 35
14 16 17 18 18 18 19 20 21 23 23 24 24 25 25 26 27 28 29 30 30 30 30 30 30 30 30 31 31 31 32 33 33 33 34 34 34 35 35 35 35 35 35 35
15 16 18 19 19 19 19 20 21 22 24 24 25 25 26 26 27 28 29 30 31 31 31 31 31 31 31 31 31 31 31 32 33 33 33 33 34 34 34 34 34 35 34 34
16 16 18 19 19 20 20 20 21 22 23 24 25 26 26 26 27 28 29 29 30 31 31 31 31 32 32 32 32 31 31 31 32 32 32 32 33 33 33 33 33 33 33 33
17 17 18 19 20 20 20 20 22 22 22 23 24 25 26 26 26 27 28 29 29 30 30 30 30 31 31 31 32 32 32 31 31 31 32 33 33 33 32 32 32 32 32 31
17 18 19 20 20 21 21 21 21 22 23 24 24 25 26 26 26 26 27 28 28 29 30 30 30 30 31 31 31 31 31 31 31 32 32 33 33 33 32 32 32 32 31 31
17 18 19 19 20 21 21 22 22 23 23 23 24 24 25 26 26 26 26 28 28 28 29 30 30 31 31 31 31 31 31 31 31 31 32 33 33 33 33 32 31 31 30 30
19 19 19 19 19 20 20 21 22 22 23 23 24 24 25 25 25 25 26 27 28 28 29 30 30 30 31 31 31 31 31 32 31 31 31 32 32 33 33 32 31 30 30 29
20 20 20 19 19 20 20 21 22 23 23 24 24 24 24 25 25 25 25 26 27 28 28 29 29 30 30 30 30 31 31 32 32 32 31 31 32 32 32 31 31 30 29 28
Wind_Direction
236 233 232 233 232 232 233 232 231 229 229 229 229 229 229 229 229 228 229 229 229 230 230 231 232 233 234 236 237 239 242 244 247 249 251 252 254 255 257 259 261 263 266 267
236 233 232 231 232 233 233 233 232 231 229 230 229 229 229 229 229 229 229 229 229 230 231 232 233 234 235 236 238 239 241 244 246 248 250 252 253 255 257 259 261 262 265 267
237 233 231 230 232 231 232 232 231 231 230 230 230 230 229 228 228 229 230 230 230 231 232 232 233 234 235 236 237 239 242 244 245 247 249 251 253 255 257 258 261 263 265 267
238 231 229 230 232 232 232 231 230 230 230 229 229 231 229 229 229 229 229 230 231 231 232 233 233 234 235 237 238 240 242 244 245 246 248 250 252 254 256 258 260 262 263 266
236 232 230 230 231 232 232 231 230 230 231 230 229 230 228 229 230 230 230 231 232 232 233 233 234 235 236 237 238 240 242 243 244 245 247 249 251 254 256 258 260 261 262 265
236 234 233 232 231 231 230 231 231 231 231 231 228 230 229 228 229 230 230 231 232 233 233 234 234 235 237 238 239 240 242 243 244 245 247 250 252 254 256 258 260 261 263 266
235 234 235 233 230 229 229 229 229 229 229 231 228 229 229 228 228 230 232 233 233 233 234 234 235 235 237 238 239 240 242 243 243 245 247 249 250 252 255 257 259 261 263 266
235 235 236 233 231 229 228 227 228 229 230 232 230 230 230 230 230 230 232 233 233 233 233 234 235 236 237 238 239 239 241 242 243 244 246 247 248 250 254 257 260 262 264 267
237 239 238 233 230 228 225 225 226 230 232 233 231 233 233 232 232 231 231 232 233 234 234 234 235 235 237 238 238 239 239 240 242 244 245 246 248 250 253 256 259 262 265 267
243 241 237 233 231 228 227 227 228 230 232 232 232 232 233 232 233 233 232 232 233 234 235 236 235 235 236 236 237 238 239 240 241 243 245 246 248 250 253 256 259 261 265 267
243 241 237 234 231 228 226 227 229 231 233 234 235 233 232 233 233 233 233 233 234 235 235 235 236 236 236 236 236 237 238 239 241 243 245 246 248 251 253 255 258 261 263 266
246 244 241 234 232 231 230 231 232 234 236 236 237 235 232 233 233 234 234 234 236 236 236 236 236 237 237 237 238 237 237 239 241 242 244 246 248 251 253 255 257 260 262 264
251 250 244 235 232 231 233 234 235 236 238 237 237 235 234 235 235 235 235 235 236 237 237 236 236 237 237 237 238 239 239 239 240 242 244 246 248 251 253 255 257 259 261 263
254 251 248 240 238 236 235 234 234 236 237 238 238 237 235 237 236 236 235 236 237 238 238 237 236 237 238 238 239 240 240 240 241 243 244 246 248 251 253 255 257 259 261 263
255 252 247 241 240 241 238 236 234 236 238 240 240 239 237 238 237 236 236 237 237 237 238 239 238 238 239 239 239 240 241 242 242 243 245 246 248 250 253 255 257 259 261 263
256 251 245 241 240 242 241 239 237 237 239 240 240 240 239 240 238 237 237 237 238 238 238 239 240 239 239 240 240 240 242 242 243 244 246 247 249 250 253 255 257 259 261 263
258 251 249 244 241 241 242 241 240 240 241 243 243 242 242 242 241 239 238 238 238 238 239 240 241 240 240 241 240 241 242 243 244 244 245 247 250 251 253 254 257 259 260 263
260 254 253 248 245 246 245 243 242 242 241 242 242 241 241 242 242 240 238 238 237 238 240 240 242 242 242 243 242 242 242 243 244 244 246 248 249 251 253 255 256 258 261 263
266 260 254 251 250 250 250 248 246 244 243 243 243 243 242 242 242 241 239 238 239 240 241 242 243 244 245 245 244 244 244 244 244 245 247 248 250 251 253 255 257 259 261 262
270 263 257 254 253 253 254 252 250 248 247 246 246 246 246 244 243 242 242 241 241 241 242 243 244 245 246 246 246 246 246 246 245 246 247 249 251 252 253 254 256 259 260 261
272 265 260 257 256 257 255 254 252 251 250 249 249 249 248 247 245 242 242 241 241 241 242 243 245 246 247 247 247 247 248 248 247 246 247 249 251 252 253 254 255 257 258 260
271 267 262 258 257 257 256 255 253 253 252 252 252 251 250 248 246 243 242 242 242 242 243 244 244 245 246 247 248 247 248 249 249 248 248 249 250 252 253 254 255 256 257 258
272 269 266 262 260 259 257 255 255 254 254 253 252 252 251 250 249 247 244 244 244 244 244 244 245 245 246 247 248 248 249 250 250 251 250 249 250 251 253 254 255 255 256 257
274 271 269 266 262 261 260 257 256 256 255 254 252 251 251 251 250 248 246 245 245 245 245 245 246 246 248 249 250 249 249 250 251 251 251 250 250 251 252 253 254 255 256 257
273 270 269 267 265 264 262 259 258 257 255 253 251 251 250 250 249 249 248 247 246 246 246 246 247 248 249 250 250 250 250 250 251 251 251 251 250 251 252 252 252 253 254 255
274 272 270 268 266 265 264 263 260 258 256 253 252 251 250 250 249 249 250 249 248 248 247 247 247 248 249 251 251 251 252 251 251 251 252 252 252 251 250 250 249 250 252 255
Height
5639 5643 5647 5652 5656 5660 5664 5669 5673 5678 5682 5687 5692 5697 5702 5707 5712 5718 5723 5728 5733 5738 5742 5747 5751 5755 5759 5763 5766 5769 5772 5775 5777 5779 5781 5783 5784 5785 5786 5787 5788 5788 5788 5788
5633 5636 5641 5645 5648 5652 5656 5660 5664 5669 5674 5678 5683 5688 5693 5698 5704 5709 5714 5720 5725 5730 5734 5739 5743 5747 5751 5755 5758 5762 5764 5767 5769 5772 5774 5775 5777 5778 5779 5780 5780 5781 5781 5780
5627 5632 5635 5638 5641 5645 5648 5653 5657 5661 5666 5669 5674 5679 5685 5690 5695 5701 5706 5711 5717 5722 5726 5731 5735 5739 5743 5747 5750 5754 5757 5759 5762 5764 5766 5767 5769 5770 5771 5772 5773 5773 5773 5773
5621 5625 5628 5632 5635 5639 5642 5646 5650 5654 5658 5661 5666 5671 5677 5682 5687 5692 5698 5703 5708 5713 5718 5722 5727 5731 5735 5739 5742 5745 5748 5751 5753 5756 5758 5760 5761 5763 5764 5765 5765 5766 5766 5765
5616 5619 5622 5626 5630 5633 5637 5640 5643 5647 5650 5655 5659 5663 5670 5674 5679 5685 5690 5695 5700 5704 5709 5714 5718 5722 5726 5730 5734 5737 5740 5743 5745 5748 5750 5752 5754 5755 5756 5757 5757 5758 5758 5758
5612 5615 5618 5621 5624 5627 5631 5634 5637 5640 5643 5648 5653 5657 5662 5667 5673 5678 5682 5687 5691 5696 5700 5704 5709 5713 5717 5721 5725 5728 5732 5734 5737 5739 5742 5744 5745 5747 5748 5749 5749 5750 5750 5750
5608 5610 5612 5615 5618 5621 5625 5628 5632 5634 5637 5641 5646 5650 5656 5660 5665 5670 5674 5678 5683 5687 5691 5696 5700 5704 5708 5712 5716 5720 5723 5726 5729 5731 5733 5735 5737 5739 5740 5741 5742 5742 5742 5742
5603 5606 5608 5610 5613 5616 5619 5624 5628 5630 5633 5637 5641 5644 5650 5654 5658 5662 5666 5670 5674 5679 5683 5687 5691 5695 5699 5703 5707 5710 5714 5717 5720 5722 5725 5727 5729 5730 5732 5733 5734 5734 5734 5733
5599 5602 5603 5606 5609 5612 5614 5618 5622 5626 5628 5632 5635 5639 5643 5647 5651 5655 5659 5662 5666 5670 5674 5678 5682 5686 5690 5694 5698 5701 5705 5708 5711 5713 5716 5718 5720 5722 5723 5724 5725 5726 5726 5725
5596 5598 5600 5602 5604 5607 5611 5614 5617 5620 5623 5626 5630 5633 5637 5641 5644 5647 5651 5654 5658 5662 5666 5670 5674 5677 5681 5685 5688 5692 5696 5699 5702 5705 5707 5710 5712 5713 5715 5716 5717 5717 5717 5717
5593 5594 5596 5598 5600 5603 5606 5609 5612 5615 5618 5621 5625 5630 5631 5634 5637 5640 5644 5647 5651 5654 5658 5662 5665 5669 5672 5676 5679 5683 5686 5690 5693 5696 5698 5701 5703 5705 5706 5708 5708 5709 5709 5709
5589 5591 5592 5594 5596 5599 5601 5605 5608 5611 5614 5616 5619 5625 5625 5628 5631 5634 5637 5640 5643 5646 5650 5653 5657 5660 5664 5667 5671 5674 5677 5681 5684 5687 5689 5692 5694 5696 5698 5699 5700 5700 5700 5700
5586 5588 5588 5590 5594 5595 5597 5600 5602 5605 5608 5610 5613 5619 5619 5621 5624 5627 5630 5633 5636 5639 5642 5645 5648 5652 5655 5658 5662 5665 5668 5672 5675 5677 5680 5683 5685 5687 5689 5690 5690 5691 5691 5691
5583 5584 5586 5588 5589 5590 5593 5595 5597 5600 5602 5605 5608 5611 5613 5615 5617 5620 5623 5626 5629 5632 5634 5637 5640 5643 5646 5650 5653 5656 5659 5662 5665 5668 5671 5673 5676 5677 5679 5680 5681 5682 5683 5683
5579 5580 5581 5583 5584 5586 5588 5590 5592 5595 5597 5600 5602 5604 5607 5608 5611 5614 5616 5619 5622 5624 5627 5630 5632 5635 5638 5641 5644 5647 5650 5653 5656 5659 5662 5664 5666 5668 5669 5671 5672 5673 5673 5674
5575 5576 5577 5579 5580 5581 5583 5585 5587 5590 5592 5594 5596 5598 5600 5602 5604 5607 5609 5612 5615 5617 5620 5622 5625 5627 5630 5633 5635 5638 5641 5644 5647 5649 5652 5654 5656 5658 5660 5661 5663 5664 5664 5665
5571 5572 5573 5575 5576 5577 5579 5581 5582 5584 5586 5588 5590 5593 5593 5595 5597 5600 5602 5605 5608 5610 5613 5615 5617 5620 5622 5624 5627 5630 5632 5635 5637 5640 5642 5645 5647 5649 5651 5652 5653 5654 5655 5656
5567 5567 5568 5570 5572 5573 5577 5576 5577 5578 5580 5582 5583 5585 5587 5589 5591 5593 5596 5598 5601 5603 5606 5608 5610 5612 5614 5616 5619 5621 5623 5626 5628 5631 5633 5635 5637 5639 5641 5642 5644 5645 5646 5646
5562 5563 5563 5565 5566 5568 5570 5570 5571 5573 5574 5575 5577 5579 5580 5582 5584 5586 5588 5591 5593 5596 5598 5600 5602 5604 5606 5608 5610 5613 5615 5617 5619 5622 5624 5626 5628 5630 5631 5633 5634 5635 5636 5637
5558 5558 5559 5559 5560 5562 5565 5565 5565 5567 5568 5570 5571 5572 5573 5575 5578 5580 5581 5583 5585 5588 5590 5592 5594 5596 5598 5600 5602 5604 5606 5608 5611 5613 5615 5617 5619 5620 5622 5623 5624 5625 5626 5627
5553 5553 5553 5553 5554 5556 5557 5558 5559 5562 5563 5563 5564 5565 5567 5568 5570 5572 5573 5575 5577 5580 5582 5584 5586 5588 5590 5592 5594 5596 5598 5599 5601 5603 5605 5607 5609 5611 5612 5614 5615 5616 5617 5618
5548 5548 5548 5548 5549 5552 5551 5551 5553 5554 5555 5555 5556 5558 5559 5561 5562 5564 5566 5567 5570 5572 5574 5576 5578 5580 5581 5583 5585 5587 5589 5590 5592 5594 5596 5598 5600 5602 5603 5604 5605 5607 5607 5608
5543 5543 5543 5544 5545 5544 5544 5544 5545 5546 5547 5548 5549 5550 5552 5553 5555 5556 5558 5559 5561 5564 5566 5568 5570 5571 5573 5574 5576 5578 5580 5581 5583 5585 5587 5589 5590 5592 5594 5595 5596 5597 5599 5600
5538 5537 5537 5537 5538 5537 5537 5537 5538 5539 5540 5541 5542 5543 5544 5546 5547 5548 5550 5551 5553 5555 5557 5559 5561 5563 5564 5566 5567 5569 5571 5572 5574 5576 5577 5579 5581 5583 5585 5586 5587 5589 5590 5591
5532 5530 5530 5531 5531 5531 5531 5531 5531 5532 5533 5533 5534 5535 5537 5538 5539 5541 5542 5543 5545 5547 5548 5550 5552 5554 5555 5556 5558 5559 5561 5563 5565 5567 5568 5570 5572 5573 5575 5577 5578 5580 5582 5583
5525 5524 5525 5525 5525 5525 5525 5524 5524 5524 5525 5526 5527 5528 5529 5530 5532 5533 5534 5535 5537 5538 5540 5541 5543 5545 5546 5547 5549 5550 5552 5553 5555 5557 5559 5561 5562 5564 5566 5568 5570 5571 5573 5574